Location: Cutler
(25.6150°N, 80.3110°W)
Time: 08:44:33
(UTC-05:00)

N. Korean satellite - Pass Details

Date: 12 November 2017
Orbit: 460 x 515 km, 97.2° (Epoch: 18 November)

Event Time Altitude Azimuth Distance (km) Brightness Sun altitude
Rises 17:56:03 0° 143° (SE) 2,469 9.9 -5.6°
Reaches altitude 10° 17:58:22 10° 128° (SE) 1,599 8.9 -6.1°
Maximum altitude 18:01:06 23° 75° (ENE) 1,036 7.6 -6.7°
Drops below altitude 10° 18:03:51 10° 21° (NNE) 1,612 8.9 -7.3°
Sets 18:06:11 0° 7° (N) 2,495 9.9 -7.8°
